Dauntless Aviation
Airports South America Uruguay

Hospital Policial

Montevideo, URUGUAY

Airport Info
Suggest Updated Information for this Airport

Location

Latitude / Longitude: 34°52'4"S / 56°9'6"W
  34°52.068'S / 56°9.114'W
  -34.8678 / -56.1519
Satellite photo at:
Airport distance calculator
From:
Weather Reports

METAR

SUMU
8.1nm NE
SUMU 240200Z 07005KT CAVOK 15/14 Q1014 NOSIG

TAF

SUAA
7.8nm NW
SUAA 232330Z 2400/2424 08005KT CAVOK TX20/2418Z TN14/2410Z PROB40 TEMPO 2404/2411 2000 BR NSC BECMG 2414/2416 02010KT 9999 BKN026 BKN060
SUMU
8.1nm NE
SUMU 232330Z 2400/2424 08005KT CAVOK TX20/2418Z TN14/2410Z PROB40 TEMPO 2404/2411 2000 BR NSC BECMG 2414/2416 02010KT 9999 BKN026 BKN060
Safelog

 

Dauntless Aviation

© 2007-2017 Dauntless Aviation, all rights reserved
Information provided via PilotNav comes from a variety of official and unofficial data sources. As errors are possible, do not use PilotNav for primary flight planning purposes. Verify any information that you receive via PilotNav with current and canonical charts and other official documents. The material in this database is subject to database copyrights held by Dauntless Aviation and may not be copied without the express permission of Dauntless Aviation - licenses for use of part of all of this data are available for purchase; enquire via the Dauntless Aviation helpdesk. A number of mechanisms and markers exist in the database to protect against and identify infringement / copyright. Automated queries against this website are stictly prohibited, and all activity is logged and analyzed.